When you browse on this site, cookies collect data to enhance your experience and personalize the content and advertising you see.
Visit our Privacy Policy to learn more. By continuing to use the site, you agree to this use of cookies and data.
  • In Norway
  • List of Countries
  • For 7 days
  • Water Temperature
  • Satellite Maps
  • Weather Map
  • Weather Widgets
  • user-avatar
    Login

    Hourly Weather Wiktoria

    Today, 20 June, Thursday

    Time Temperature Precipitation Wind Pressure Humidity
    00:00 +3°C° 0 mm 2 mps 757 mmHg 90%
    01:00 +3°C° 0 mm 2 mps 757 mmHg 90%
    02:00 +2°C° 0 mm 2 mps 756 mmHg 90%
    03:00 +2°C° 0 mm 2 mps 756 mmHg 90%
    04:00 +3°C° 0 mm 1 mps 756 mmHg 90%
    05:00 +2°C° 0 mm 1 mps 757 mmHg 90%
    06:00 +2°C° 0 mm 1 mps 757 mmHg 90%
    07:00 +2°C° 0 mm 1 mps 757 mmHg 90%
    08:00 +4°C° 0 mm 1 mps 757 mmHg 84%
    09:00 +5°C° 0 mm 1 mps 757 mmHg 78%
    10:00 +6°C° 0 mm 0 mps 758 mmHg 71%
    11:00 +7°C° 0 mm 0 mps 757 mmHg 68%
    12:00 +8°C° 0 mm 0 mps 756 mmHg 66%
    13:00 +9°C° 0 mm 0 mps 756 mmHg 63%
    14:00 +10°C° 0 mm 1 mps 756 mmHg 66%
    15:00 +10°C° 0 mm 1 mps 756 mmHg 69%
    16:00 +9°C° 0 mm 2 mps 755 mmHg 72%
    17:00 +7°C° 0 mm 2 mps 756 mmHg 78%
    18:00 +6°C° 0 mm 2 mps 756 mmHg 85%
    19:00 +4°C° 0 mm 2 mps 757 mmHg 91%
    20:00 +4°C° 0 mm 2 mps 757 mmHg 92%
    21:00 +4°C° 0 mm 2 mps 757 mmHg 93%
    22:00 +3°C° 0 mm 2 mps 758 mmHg 93%
    23:00 +3°C° 0 mm 2 mps 758 mmHg 93%

    Tomorrow, 21 June, Friday

    Time Temperature Precipitation Wind Pressure Humidity
    00:00 +3°C° 0 mm 2 mps 757 mmHg 93%
    01:00 +3°C° 0 mm 2 mps 757 mmHg 93%
    02:00 +3°C° 0 mm 2 mps 757 mmHg 94%
    03:00 +3°C° 0 mm 2 mps 757 mmHg 94%
    04:00 +2°C° 0 mm 3 mps 758 mmHg 94%
    05:00 +2°C° 0 mm 3 mps 758 mmHg 94%
    06:00 +2°C° 0 mm 3 mps 758 mmHg 94%
    07:00 +2°C° 0 mm 3 mps 758 mmHg 94%
    08:00 +4°C° 0 mm 3 mps 758 mmHg 89%
    09:00 +5°C° 0 mm 3 mps 759 mmHg 84%
    10:00 +7°C° 0 mm 4 mps 759 mmHg 79%
    11:00 +8°C° 0 mm 4 mps 759 mmHg 72%
    12:00 +10°C° 0 mm 5 mps 758 mmHg 65%
    13:00 +12°C° 0 mm 5 mps 758 mmHg 59%
    14:00 +10°C° 0 mm 5 mps 758 mmHg 61%
    15:00 +11°C° 0 mm 4 mps 758 mmHg 64%
    16:00 +11°C° 0 mm 4 mps 758 mmHg 67%
    17:00 +8°C° 0 mm 4 mps 758 mmHg 73%
    18:00 +6°C° 0 mm 4 mps 759 mmHg 80%
    19:00 +4°C° 0 mm 4 mps 759 mmHg 87%
    20:00 +4°C° 0 mm 3 mps 759 mmHg 88%
    21:00 +3°C° 0 mm 3 mps 760 mmHg 89%
    22:00 +3°C° 0 mm 3 mps 760 mmHg 90%
    23:00 +3°C° 0 mm 3 mps 760 mmHg 90%

    Day after tomorrow, 22 June, Saturday

    Time Temperature Precipitation Wind Pressure Humidity
    00:00 +2°C° 0 mm 3 mps 760 mmHg 90%
    01:00 +2°C° 0 mm 3 mps 760 mmHg 90%
    02:00 +2°C° 0 mm 3 mps 760 mmHg 90%
    03:00 +2°C° 0 mm 3 mps 760 mmHg 90%
    04:00 +1°C° 0 mm 3 mps 760 mmHg 91%
    05:00 +1°C° 0 mm 3 mps 760 mmHg 91%
    06:00 +2°C° 0 mm 2 mps 760 mmHg 91%
    07:00 +2°C° 0 mm 2 mps 760 mmHg 91%
    08:00 +4°C° 0 mm 2 mps 760 mmHg 85%
    09:00 +6°C° 0 mm 2 mps 760 mmHg 78%
    10:00 +8°C° 0 mm 2 mps 761 mmHg 71%
    11:00 +9°C° 0 mm 2 mps 760 mmHg 66%
    12:00 +10°C° 0 mm 3 mps 760 mmHg 60%
    13:00 +11°C° 0 mm 3 mps 759 mmHg 55%
    14:00 +11°C° 0 mm 3 mps 759 mmHg 59%
    15:00 +11°C° 0 mm 3 mps 759 mmHg 63%
    16:00 +10°C° 0 mm 2 mps 759 mmHg 66%
    17:00 +9°C° 0 mm 3 mps 759 mmHg 72%
    18:00 +7°C° 0 mm 3 mps 759 mmHg 78%
    19:00 +4°C° 0 mm 3 mps 760 mmHg 84%
    20:00 +3°C° 0 mm 3 mps 760 mmHg 85%
    21:00 +3°C° 0 mm 3 mps 760 mmHg 87%
    22:00 +2°C° 0 mm 3 mps 760 mmHg 88%
    23:00 +3°C° 0 mm 2 mps 760 mmHg 88%

    23 June, Sunday

    Time Temperature Precipitation Wind Pressure Humidity
    00:00 +2°C° 0 mm 2 mps 760 mmHg 87%
    01:00 +2°C° 0 mm 2 mps 759 mmHg 87%
    02:00 +2°C° 0 mm 2 mps 760 mmHg 87%
    03:00 +1°C° 0 mm 2 mps 760 mmHg 86%
    04:00 +2°C° 0 mm 1 mps 760 mmHg 86%
    05:00 +2°C° 0 mm 1 mps 760 mmHg 86%
    06:00 +2°C° 0 mm 1 mps 760 mmHg 86%
    07:00 +1°C° 0 mm 1 mps 761 mmHg 85%
    08:00 +3°C° 0 mm 1 mps 761 mmHg 78%
    09:00 +5°C° 0 mm 1 mps 761 mmHg 71%
    10:00 +7°C° 0 mm 1 mps 761 mmHg 64%
    11:00 +9°C° 0 mm 1 mps 761 mmHg 60%
    12:00 +10°C° 0 mm 1 mps 760 mmHg 57%
    13:00 +12°C° 0 mm 1 mps 760 mmHg 53%
    14:00 +11°C° 0 mm 1 mps 760 mmHg 56%
    15:00 +11°C° 0 mm 1 mps 760 mmHg 60%
    16:00 +11°C° 0 mm 1 mps 760 mmHg 63%
    17:00 +10°C° 0 mm 1 mps 760 mmHg 67%
    18:00 +8°C° 0 mm 1 mps 761 mmHg 70%
    19:00 +5°C° 0 mm 2 mps 761 mmHg 74%
    20:00 +5°C° 0 mm 2 mps 761 mmHg 75%
    21:00 +4°C° 0 mm 2 mps 762 mmHg 76%
    22:00 +4°C° 0 mm 2 mps 762 mmHg 77%
    23:00 +4°C° 0 mm 2 mps 762 mmHg 79%

    24 June, Monday

    Time Temperature Precipitation Wind Pressure Humidity
    00:00 +3°C° 0 mm 2 mps 762 mmHg 81%
    01:00 +3°C° 0 mm 2 mps 762 mmHg 82%
    02:00 +4°C° 0 mm 1 mps 762 mmHg 83%
    03:00 +3°C° 0 mm 1 mps 762 mmHg 83%
    04:00 +3°C° 0 mm 1 mps 762 mmHg 84%
    05:00 +3°C° 0 mm 1 mps 763 mmHg 83%
    06:00 +3°C° 0 mm 1 mps 763 mmHg 83%
    07:00 +3°C° 0 mm 1 mps 764 mmHg 82%
    08:00 +5°C° 0 mm 1 mps 764 mmHg 76%
    09:00 +7°C° 0 mm 1 mps 764 mmHg 69%
    10:00 +9°C° 0 mm 1 mps 764 mmHg 63%
    11:00 +10°C° 0 mm 1 mps 763 mmHg 60%
    12:00 +11°C° 0 mm 0 mps 763 mmHg 57%
    13:00 +12°C° 0 mm 0 mps 762 mmHg 55%
    14:00 +12°C° 0 mm 0 mps 762 mmHg 59%
    15:00 +12°C° 0 mm 0 mps 762 mmHg 62%
    16:00 +12°C° 0 mm 0 mps 762 mmHg 66%
    17:00 +10°C° 0 mm 0 mps 762 mmHg 70%
    18:00 +8°C° 0 mm 0 mps 763 mmHg 74%
    19:00 +6°C° 0 mm 0 mps 763 mmHg 78%
    20:00 +7°C° 0 mm 1 mps 764 mmHg 78%
    21:00 +7°C° 0 mm 1 mps 764 mmHg 78%
    22:00 +6°C° 0 mm 1 mps 764 mmHg 79%
    23:00 +6°C° 0 mm 1 mps 764 mmHg 79%

    25 June, Tuesday

    Time Temperature Precipitation Wind Pressure Humidity
    00:00 +6°C° 0 mm 1 mps 764 mmHg 79%
    01:00 +6°C° 0 mm 1 mps 764 mmHg 80%
    02:00 +5°C° 0 mm 1 mps 764 mmHg 79%
    03:00 +5°C° 0 mm 1 mps 764 mmHg 79%
    04:00 +4°C° 0 mm 2 mps 764 mmHg 78%
    05:00 +5°C° 0 mm 1 mps 765 mmHg 79%
    06:00 +5°C° 0 mm 1 mps 765 mmHg 79%
    07:00 +5°C° 0 mm 1 mps 765 mmHg 80%
    08:00 +6°C° 0 mm 1 mps 766 mmHg 75%
    09:00 +8°C° 0 mm 1 mps 766 mmHg 71%
    10:00 +9°C° 0 mm 1 mps 766 mmHg 66%
    11:00 +10°C° 0 mm 1 mps 765 mmHg 63%
    12:00 +12°C° 0 mm 1 mps 765 mmHg 61%
    13:00 +12°C° 0 mm 0 mps 764 mmHg 58%
    14:00 +13°C° 0 mm 1 mps 764 mmHg 61%
    15:00 +13°C° 0 mm 1 mps 764 mmHg 65%
    16:00 +13°C° 0 mm 1 mps 764 mmHg 68%
    17:00 +11°C° 0 mm 1 mps 764 mmHg 73%
    18:00 +10°C° 0 mm 1 mps 765 mmHg 77%
    19:00 +8°C° 0 mm 1 mps 765 mmHg 81%
    20:00 +7°C° 0 mm 2 mps 765 mmHg 82%
    21:00 +6°C° 0 mm 2 mps 765 mmHg 82%
    22:00 +6°C° 0 mm 2 mps 766 mmHg 83%
    23:00 +5°C° 0 mm 2 mps 766 mmHg 84%
    Show more